• In Uzbekistan
  • List of Countries
  • For 7 days
  • Water Temperature
  • Satellite Maps
  • Weather Map
  • Weather Widgets
  • user-avatar
    Login

    Hourly Weather Maseru

    Today, 20 August, Monday

    Time Temperature Precipitation Wind Pressure Humidity
    00:00 +10°C° 0 mm 2 mps 635 mmHg 46%
    01:00 +10°C° 0 mm 2 mps 635 mmHg 47%
    02:00 +9°C° 0 mm 2 mps 635 mmHg 46%
    03:00 +9°C° 0 mm 2 mps 635 mmHg 47%
    04:00 +9°C° 0 mm 2 mps 635 mmHg 48%
    05:00 +9°C° 0 mm 2 mps 635 mmHg 48%
    06:00 +10°C° 0 mm 2 mps 635 mmHg 47%
    07:00 +12°C° 0 mm 2 mps 636 mmHg 45%
    08:00 +13°C° 0 mm 2 mps 636 mmHg 44%
    09:00 +14°C° 0 mm 3 mps 637 mmHg 41%
    10:00 +18°C° 0 mm 4 mps 637 mmHg 39%
    11:00 +20°C° 0 mm 5 mps 637 mmHg 36%
    12:00 +21°C° 0 mm 6 mps 637 mmHg 33%
    13:00 +22°C° 0 mm 6 mps 636 mmHg 31%
    14:00 +23°C° 0 mm 7 mps 636 mmHg 28%
    15:00 +23°C° 0 mm 6 mps 636 mmHg 27%
    16:00 +23°C° 0 mm 5 mps 635 mmHg 26%
    17:00 +23°C° 0 mm 5 mps 635 mmHg 24%
    18:00 +21°C° 0 mm 4 mps 635 mmHg 27%
    19:00 +18°C° 0 mm 3 mps 635 mmHg 30%
    20:00 +16°C° 0 mm 2 mps 634 mmHg 32%
    21:00 +15°C° 0 mm 2 mps 634 mmHg 33%
    22:00 +14°C° 0 mm 1 mps 634 mmHg 34%
    23:00 +14°C° 0 mm 1 mps 635 mmHg 35%

    Tomorrow, 21 August, Tuesday

    Time Temperature Precipitation Wind Pressure Humidity
    00:00 +13°C° 0 mm 1 mps 635 mmHg 35%
    01:00 +12°C° 0 mm 1 mps 634 mmHg 35%
    02:00 +11°C° 0 mm 1 mps 634 mmHg 36%
    03:00 +11°C° 0 mm 1 mps 634 mmHg 35%
    04:00 +11°C° 0 mm 1 mps 634 mmHg 35%
    05:00 +10°C° 0 mm 1 mps 634 mmHg 35%
    06:00 +12°C° 0 mm 1 mps 634 mmHg 34%
    07:00 +13°C° 0 mm 1 mps 635 mmHg 32%
    08:00 +15°C° 0 mm 1 mps 636 mmHg 31%
    09:00 +18°C° 0 mm 1 mps 637 mmHg 26%
    10:00 +19°C° 0 mm 2 mps 638 mmHg 21%
    11:00 +21°C° 0 mm 3 mps 638 mmHg 16%
    12:00 +22°C° 0 mm 4 mps 638 mmHg 17%
    13:00 +23°C° 0 mm 5 mps 637 mmHg 18%
    14:00 +24°C° 0 mm 7 mps 637 mmHg 19%
    15:00 +24°C° 0 mm 6 mps 637 mmHg 21%
    16:00 +23°C° 0 mm 5 mps 636 mmHg 22%
    17:00 +23°C° 0 mm 4 mps 636 mmHg 24%
    18:00 +22°C° 0 mm 3 mps 636 mmHg 26%
    19:00 +20°C° 0 mm 2 mps 636 mmHg 29%
    20:00 +20°C° 0 mm 1 mps 636 mmHg 31%
    21:00 +18°C° 0.1 mm 2 mps 636 mmHg 33%
    22:00 +18°C° 0.1 mm 2 mps 636 mmHg 35%
    23:00 +18°C° 0.1 mm 2 mps 636 mmHg 37%

    Day after tomorrow, 22 August, Wednesday

    Time Temperature Precipitation Wind Pressure Humidity
    00:00 +17°C° 0 mm 2 mps 636 mmHg 39%
    01:00 +16°C° 0 mm 2 mps 636 mmHg 41%
    02:00 +16°C° 0 mm 2 mps 635 mmHg 42%
    03:00 +15°C° 0.1 mm 2 mps 635 mmHg 46%
    04:00 +15°C° 0.1 mm 2 mps 635 mmHg 50%
    05:00 +14°C° 0.1 mm 1 mps 635 mmHg 54%
    06:00 +14°C° 0 mm 2 mps 636 mmHg 55%
    07:00 +15°C° 0 mm 2 mps 636 mmHg 56%
    08:00 +14°C° 0 mm 3 mps 637 mmHg 57%
    09:00 +14°C° 0.6 mm 3 mps 637 mmHg 58%
    10:00 +14°C° 0.6 mm 3 mps 637 mmHg 59%
    11:00 +13°C° 0.6 mm 3 mps 637 mmHg 60%
    12:00 +15°C° 0.3 mm 4 mps 637 mmHg 53%
    13:00 +17°C° 0.3 mm 4 mps 637 mmHg 46%
    14:00 +18°C° 0.3 mm 4 mps 636 mmHg 39%
    15:00 +18°C° 0 mm 4 mps 636 mmHg 38%
    16:00 +19°C° 0 mm 4 mps 636 mmHg 38%
    17:00 +19°C° 0 mm 3 mps 636 mmHg 37%
    18:00 +17°C° 0 mm 2 mps 635 mmHg 42%
    19:00 +15°C° 0 mm 2 mps 635 mmHg 48%
    20:00 +13°C° 0 mm 1 mps 635 mmHg 54%
    21:00 +13°C° 0 mm 1 mps 634 mmHg 55%
    22:00 +12°C° 0 mm 1 mps 634 mmHg 57%
    23:00 +11°C° 0 mm 1 mps 634 mmHg 58%

    23 August, Thursday

    Time Temperature Precipitation Wind Pressure Humidity
    00:00 +11°C° 0 mm 1 mps 634 mmHg 59%
    01:00 +11°C° 0 mm 1 mps 634 mmHg 60%
    02:00 +10°C° 0 mm 1 mps 633 mmHg 60%
    03:00 +10°C° 0 mm 1 mps 633 mmHg 62%
    04:00 +10°C° 0 mm 1 mps 633 mmHg 63%
    05:00 +9°C° 0 mm 1 mps 633 mmHg 64%
    06:00 +11°C° 0 mm 1 mps 634 mmHg 59%
    07:00 +12°C° 0 mm 1 mps 635 mmHg 53%
    08:00 +14°C° 0 mm 1 mps 636 mmHg 48%
    09:00 +16°C° 0 mm 1 mps 637 mmHg 40%
    10:00 +18°C° 0 mm 2 mps 637 mmHg 33%
    11:00 +20°C° 0 mm 3 mps 638 mmHg 26%
    12:00 +20°C° 0 mm 4 mps 637 mmHg 24%
    13:00 +21°C° 0 mm 5 mps 637 mmHg 22%
    14:00 +22°C° 0 mm 5 mps 636 mmHg 20%
    15:00 +21°C° 0 mm 5 mps 636 mmHg 21%
    16:00 +21°C° 0 mm 4 mps 636 mmHg 22%
    17:00 +20°C° 0 mm 4 mps 636 mmHg 23%
    18:00 +18°C° 0 mm 3 mps 635 mmHg 27%
    19:00 +16°C° 0 mm 2 mps 635 mmHg 30%
    20:00 +14°C° 0 mm 1 mps 635 mmHg 34%
    21:00 +13°C° 0 mm 1 mps 635 mmHg 35%
    22:00 +13°C° 0 mm 1 mps 635 mmHg 35%
    23:00 +12°C° 0 mm 1 mps 635 mmHg 36%

    24 August, Friday

    Time Temperature Precipitation Wind Pressure Humidity
    00:00 +12°C° 0 mm 1 mps 635 mmHg 37%
    01:00 +12°C° 0 mm 1 mps 635 mmHg 39%
    02:00 +11°C° 0 mm 1 mps 635 mmHg 40%
    03:00 +11°C° 0 mm 1 mps 635 mmHg 46%
    04:00 +11°C° 0 mm 1 mps 635 mmHg 51%
    05:00 +10°C° 0 mm 1 mps 634 mmHg 57%
    06:00 +10°C° 0.2 mm 2 mps 635 mmHg 57%
    07:00 +12°C° 0.2 mm 2 mps 636 mmHg 57%
    08:00 +13°C° 0.2 mm 2 mps 637 mmHg 57%
    09:00 +14°C° 0.2 mm 4 mps 637 mmHg 55%
    10:00 +16°C° 0.2 mm 6 mps 637 mmHg 52%
    11:00 +18°C° 0.2 mm 8 mps 638 mmHg 50%
    12:00 +18°C° 0.7 mm 8 mps 637 mmHg 51%
    13:00 +18°C° 0.7 mm 8 mps 637 mmHg 51%
    14:00 +18°C° 0.7 mm 8 mps 636 mmHg 52%
    15:00 +17°C° 0.7 mm 7 mps 636 mmHg 58%
    16:00 +16°C° 0.7 mm 6 mps 635 mmHg 63%
    17:00 +15°C° 0.7 mm 4 mps 635 mmHg 69%
    18:00 +14°C° 1.5 mm 4 mps 635 mmHg 75%
    19:00 +13°C° 1.5 mm 3 mps 635 mmHg 80%
    20:00 +12°C° 1.5 mm 3 mps 635 mmHg 86%
    21:00 +13°C° 3.2 mm 2 mps 635 mmHg 87%
    22:00 +12°C° 3.2 mm 2 mps 635 mmHg 89%
    23:00 +12°C° 3.2 mm 2 mps 635 mmHg 90%

    25 August, Saturday

    Time Temperature Precipitation Wind Pressure Humidity
    00:00 +12°C° 1 mm 2 mps 634 mmHg 90%
    01:00 +12°C° 1 mm 2 mps 634 mmHg 91%
    02:00 +12°C° 1 mm 2 mps 634 mmHg 91%
    03:00 +12°C° 0.3 mm 2 mps 634 mmHg 91%
    04:00 +12°C° 0.3 mm 2 mps 633 mmHg 92%
    05:00 +10°C° 0.3 mm 2 mps 633 mmHg 92%
    06:00 +11°C° 0.1 mm 3 mps 634 mmHg 88%
    07:00 +12°C° 0.1 mm 3 mps 634 mmHg 84%
    08:00 +13°C° 0.1 mm 4 mps 635 mmHg 80%
    09:00 +15°C° 0 mm 5 mps 635 mmHg 73%
    10:00 +16°C° 0 mm 6 mps 635 mmHg 67%
    11:00 +19°C° 0 mm 6 mps 635 mmHg 61%
    12:00 +19°C° 0.1 mm 6 mps 635 mmHg 58%
    13:00 +20°C° 0.1 mm 6 mps 634 mmHg 56%
    14:00 +21°C° 0.1 mm 6 mps 634 mmHg 54%
    15:00 +20°C° 0.3 mm 5 mps 633 mmHg 53%
    16:00 +20°C° 0.3 mm 4 mps 633 mmHg 53%
    17:00 +20°C° 0.3 mm 2 mps 633 mmHg 52%
    18:00 +20°C° 0.1 mm 3 mps 632 mmHg 52%
    19:00 +19°C° 0.1 mm 3 mps 632 mmHg 52%
    20:00 +19°C° 0.1 mm 4 mps 632 mmHg 51%
    21:00 +18°C° 0.1 mm 4 mps 632 mmHg 53%
    22:00 +17°C° 0.1 mm 4 mps 632 mmHg 55%
    23:00 +17°C° 0.1 mm 4 mps 632 mmHg 57%
    Show more